Weather History for KMTN - September, 2013

Change the Weather History Date:

Thursday, September 26, 2013

  Actual Average Record
Temperature  
Mean Temperature 64 °F -  
Max Temperature 73 °F 70 °F 87 °F (2007)
Min Temperature 55 °F 54 °F 44 °F (2001)
Degree Days  
Heating Degree Days 1    
Growing Degree Days 14 (Base 50)    
Moisture  
Dew Point 54 °F    
Average Humidity 84    
Maximum Humidity 100    
Minimum Humidity 47    
Precipitation  
Precipitation 0.00 in - - ()
Sea Level Pressure  
Sea Level Pressure 30.00 in    
Wind  
Wind Speed 1 mph (NNE)    
Max Wind Speed 7 mph    
Max Gust Speed -    
Visibility 10 miles    
Events      
Averages and records for this station are not official NWS values.
T = Trace of Precipitation, MM = Missing Value Source: NWS Daily Summary

Daily Weather History Graph

Daily Weather History Graph

Search for Another Location

Airport or City:

Trip Planner

Search our weather history database for the weather conditions in past years. The results will help you decide how hot, cold, wet, or windy it might be!

Date:

Astronomy

Sep. 26, 2013 Rise Set
Actual Time 6:57 AM EDT 6:55 PM EDT
Civil Twilight 6:30 AM EDT 7:22 PM EDT
Nautical Twilight 5:59 AM EDT 7:53 PM EDT
Astronomical Twilight 5:27 AM EDT 8:25 PM EDT
Moon 11:53 PM EDT (9/26) 1:45 PM EDT (9/26)
Length of Visible Light 12h 52m
Length of Day
11h 58m
Waning Gibbous, 55% of the Moon is Illuminated
Sep 26
Waning Gibbous
Sep 26
Last Quarter
Oct 4
New
Oct 11
First Quarter
Oct 18
Full

Hourly Weather History & Observations

Time (EDT) Temp. Dew Point Humidity Pressure Visibility Wind Dir Wind Speed Gust Speed Precip Events Conditions
12:03 AM 55.4 °F 55.4 °F 100% 29.95 in 10.0 mi Calm Calm - N/A   Clear
12:21 AM 55.4 °F 55.4 °F 100% 29.96 in 10.0 mi Calm Calm - N/A   Clear
12:42 AM 55.4 °F 55.4 °F 100% 29.96 in 10.0 mi Calm Calm - N/A   Clear
1:03 AM 55.4 °F 55.4 °F 100% 29.96 in 10.0 mi Calm Calm - N/A   Clear
1:21 AM 55.4 °F 53.6 °F 94% 29.96 in 10.0 mi WNW 3.5 mph - N/A   Clear
1:42 AM 55.4 °F 53.6 °F 94% 29.95 in 10.0 mi NW 3.5 mph - N/A   Clear
2:03 AM 55.4 °F 53.6 °F 94% 29.95 in 10.0 mi Calm Calm - N/A   Clear
2:21 AM 55.4 °F 53.6 °F 94% 29.95 in 10.0 mi WNW 3.5 mph - N/A   Clear
2:42 AM 55.4 °F 53.6 °F 94% 29.95 in 10.0 mi Calm Calm - N/A   Clear
3:03 AM 55.4 °F 53.6 °F 94% 29.95 in 10.0 mi Calm Calm - N/A   Clear
3:24 AM 55.4 °F 53.6 °F 94% 29.95 in 10.0 mi Calm Calm - N/A   Clear
3:42 AM 55.4 °F 53.6 °F 94% 29.95 in 10.0 mi Calm Calm - N/A   Clear
4:03 AM 55.4 °F 53.6 °F 94% 29.95 in 10.0 mi Calm Calm - N/A   Clear
4:24 AM 55.4 °F 53.6 °F 94% 29.95 in 10.0 mi Calm Calm - N/A   Clear
4:42 AM 55.4 °F 53.6 °F 94% 29.95 in 10.0 mi NNW 3.5 mph - N/A   Clear
5:03 AM 55.4 °F 51.8 °F 88% 29.96 in 10.0 mi Calm Calm - N/A   Clear
5:24 AM 55.4 °F 51.8 °F 88% 29.96 in 10.0 mi Calm Calm - N/A   Clear
5:27 AM 55.4 °F 51.8 °F 88% 29.96 in 10.0 mi Calm Calm - N/A   Clear
5:50 AM 55.4 °F 53.6 °F 94% 29.96 in 10.0 mi Calm Calm - N/A   Scattered Clouds
6:45 AM 55.4 °F 51.8 °F 88% 29.97 in 10.0 mi Calm Calm - N/A   Mostly Cloudy
7:45 AM 55.4 °F 53.6 °F 94% 29.99 in 10.0 mi Calm Calm - N/A   Mostly Cloudy
8:50 AM 59.0 °F 53.6 °F 82% 30.01 in 10.0 mi Calm Calm - N/A   Mostly Cloudy
9:50 AM 60.8 °F 53.6 °F 77% 30.03 in 10.0 mi Calm Calm - N/A   Mostly Cloudy
10:50 AM 66.2 °F 55.4 °F 68% 30.04 in 10.0 mi North 4.6 mph - N/A   Mostly Cloudy
11:45 AM 71.6 °F 53.6 °F 53% 30.04 in 10.0 mi NE 5.8 mph - N/A   Scattered Clouds
12:45 PM 73.4 °F 51.8 °F 47% 30.03 in 10.0 mi NE 5.8 mph - N/A   Scattered Clouds
1:45 PM 73.4 °F 53.6 °F 50% 30.02 in 10.0 mi ENE 3.5 mph - N/A   Scattered Clouds
2:45 PM 73.4 °F 51.8 °F 47% 30.02 in 10.0 mi ENE 6.9 mph - N/A   Scattered Clouds
3:45 PM 73.4 °F 51.8 °F 47% 30.02 in 10.0 mi NNE 3.5 mph - N/A   Scattered Clouds
4:55 PM 73.4 °F 53.6 °F 50% 30.02 in 10.0 mi East 4.6 mph - N/A   Scattered Clouds
5:50 PM 73.4 °F 53.6 °F 50% 30.03 in 10.0 mi East 4.6 mph - N/A   Scattered Clouds
6:45 PM 68.0 °F 57.2 °F 68% 30.04 in 10.0 mi Calm Calm - N/A   Scattered Clouds
7:55 PM 64.4 °F 57.2 °F 77% 30.05 in 10.0 mi Calm Calm - N/A   Partly Cloudy
8:55 PM 60.8 °F 59.0 °F 94% 30.07 in 10.0 mi Calm Calm - N/A   Partly Cloudy
9:45 PM 59.0 °F 57.2 °F 94% 30.08 in 10.0 mi Calm Calm - N/A   Partly Cloudy
10:06 PM 59.0 °F 57.2 °F 94% 30.08 in 10.0 mi Calm Calm - N/A   Clear
10:24 PM 59.0 °F 57.2 °F 94% 30.08 in 10.0 mi Calm Calm - N/A   Clear
10:45 PM 59.0 °F 57.2 °F 94% 30.08 in 10.0 mi Calm Calm - N/A   Clear
11:06 PM 57.2 °F 57.2 °F 100% 30.08 in 10.0 mi Calm Calm - N/A   Scattered Clouds
11:24 PM 57.2 °F 55.4 °F 94% 30.09 in 10.0 mi Calm Calm - N/A   Mostly Cloudy
11:45 PM 57.2 °F 55.4 °F 94% 30.09 in 10.0 mi Calm Calm - N/A   Scattered Clouds